Wind_Speed
26 28 33 38 38 37 35 34 29 19 17 24 27 25 22 21 24 26 20 19 27 29 29 30 27 33 35 27 25 27 27 27 28 29 32 37 38 36 32 29 27 25 24 23 25 25 23 23 23 22 23 25 25 23 21 18 18 19 20 22 24 25 25 25 28 31 30 29 28 26 24 22 20 20 19 18 17 17 16 14 12 10 9 8 8 8
26 31 35 36 32 29 30 30 26 18 16 22 26 25 23 22 20 23 23 19 24 26 23 26 27 29 31 27 26 28 27 28 29 29 31 36 38 36 33 29 26 26 25 25 26 25 23 24 25 24 25 27 25 23 21 20 19 20 21 22 24 25 24 26 29 29 29 27 26 24 22 20 19 18 18 18 18 18 16 13 12 10 9 8 9 10
30 35 32 29 26 24 27 30 26 19 19 22 24 24 23 23 20 18 22 20 21 24 20 22 26 27 28 26 25 27 29 29 28 29 28 30 33 33 31 29 28 27 26 26 26 24 24 26 26 25 26 27 26 24 22 22 21 21 22 22 23 23 23 25 28 28 27 26 24 22 21 19 18 19 20 21 21 18 16 14 12 10 9 9 10 11
31 32 26 24 25 24 26 31 28 20 21 23 22 25 23 23 22 17 21 22 21 23 18 18 23 24 24 25 24 26 30 29 27 28 28 28 29 29 30 29 29 29 26 27 26 25 26 26 26 26 27 28 27 25 24 23 23 22 22 22 22 22 22 24 27 28 27 26 25 23 21 20 20 22 23 23 21 18 16 14 13 11 10 10 11 12
27 23 22 24 23 25 27 30 30 24 22 23 23 25 22 23 23 17 19 22 20 21 19 16 19 23 24 23 25 29 31 31 30 30 30 31 29 29 32 32 31 30 28 28 28 28 28 27 26 27 27 29 29 26 24 24 23 23 22 22 22 22 23 25 27 28 28 27 25 24 23 22 24 25 25 23 20 17 16 14 13 12 11 11 12 13
25 19 21 27 25 26 28 29 32 28 23 23 23 24 20 21 21 15 17 22 20 21 23 20 15 18 25 24 25 30 33 34 34 32 31 30 31 32 33 34 32 31 30 31 31 30 28 27 27 28 28 29 29 27 25 25 24 24 23 22 22 22 23 26 28 29 29 27 25 23 22 23 25 25 24 21 18 17 16 15 13 12 12 12 13 13
26 20 22 28 27 26 27 28 30 29 24 21 23 23 18 19 20 16 18 22 20 19 23 26 18 13 21 26 25 27 31 35 35 34 32 30 32 35 34 34 33 33 33 33 31 29 28 28 29 30 29 28 29 28 27 27 26 25 26 24 22 22 23 25 27 29 29 27 25 23 22 23 24 23 21 19 18 19 18 16 14 13 13 14 14 13
26 22 22 25 27 28 29 28 31 32 24 19 23 24 18 19 21 18 18 20 18 14 16 26 25 16 17 23 24 27 30 32 34 34 33 33 33 35 35 35 35 34 35 34 31 28 28 28 29 31 30 28 28 29 29 27 27 28 28 25 22 22 23 25 26 28 29 28 27 25 23 24 25 22 20 19 19 19 17 15 14 14 14 15 15 12
26 24 22 25 27 28 29 27 29 33 23 15 22 24 19 18 20 18 18 19 16 12 14 24 26 18 13 16 21 27 28 28 33 37 34 34 35 35 36 36 36 34 34 34 31 29 28 27 30 31 31 29 28 29 29 27 29 32 30 25 22 22 24 26 27 28 29 28 27 25 25 26 24 21 19 19 18 16 15 15 14 14 15 16 15 12
23 22 20 24 26 25 26 23 27 33 22 14 21 22 18 17 17 18 17 18 15 11 15 23 27 19 12 15 20 23 27 30 34 37 35 35 36 36 37 35 35 34 33 34 33 31 30 29 30 31 31 30 28 28 29 28 33 37 30 23 21 21 24 27 27 28 29 27 26 26 26 25 23 21 19 17 16 16 16 16 15 16 17 17 15 13
18 20 19 23 23 21 22 21 28 33 21 16 22 21 18 16 15 16 15 16 13 12 17 21 27 23 13 16 22 22 29 34 33 31 31 33 35 35 35 34 34 34 34 34 34 33 31 31 32 31 30 30 28 28 28 29 35 34 24 17 18 21 25 26 25 29 29 25 25 26 25 23 22 20 18 17 16 16 17 16 15 18 20 18 15 14
15 22 22 23 21 20 22 21 27 32 21 19 24 22 20 16 14 14 13 14 9 10 18 21 23 24 16 14 19 22 29 30 27 26 27 30 33 33 32 32 33 33 33 32 32 32 32 32 31 29 29 29 28 27 26 31 34 29 20 15 17 21 24 24 24 28 29 25 24 25 23 23 23 20 17 17 17 17 17 15 15 19 20 17 16 14
16 25 24 22 22 23 25 24 27 30 25 23 25 26 21 15 12 13 12 12 10 8 14 19 20 20 20 16 13 16 23 26 25 24 23 24 28 30 31 30 31 32 31 30 30 29 31 31 29 27 27 27 27 26 27 31 31 24 20 17 18 18 20 24 26 27 27 24 22 24 23 22 21 20 19 19 18 17 16 14 16 20 19 17 16 13
17 23 25 23 24 25 26 28 31 33 33 31 31 30 22 12 9 11 9 9 10 9 10 16 17 15 18 19 16 15 16 20 24 23 21 20 21 26 29 30 31 31 30 30 29 28 29 30 29 28 27 26 26 26 28 30 26 21 20 19 19 17 18 24 26 24 24 23 22 25 24 21 20 21 21 20 18 16 14 14 17 21 19 18 17 12
18 20 27 28 25 27 28 28 31 31 32 33 30 27 22 14 9 9 9 9 11 11 11 15 14 12 14 13 16 21 17 15 19 20 22 24 24 26 28 30 31 30 30 31 29 28 29 30 30 28 26 25 25 26 28 28 24 21 20 20 20 18 18 22 21 19 19 20 22 25 23 20 20 21 21 19 17 15 13 15 20 21 20 19 16 12
19 17 26 27 22 27 28 25 27 27 26 29 27 25 23 17 10 7 4 6 10 10 11 16 12 10 13 10 10 18 21 20 20 20 22 26 27 27 27 28 30 29 29 30 29 28 29 31 30 28 26 24 25 26 27 26 23 20 18 19 21 18 17 19 17 16 17 19 20 20 19 18 17 17 18 17 16 14 13 16 21 21 20 20 16 12
19 16 24 26 20 26 27 22 27 27 24 26 27 28 25 16 10 9 5 5 8 7 8 16 14 9 10 12 14 18 19 21 23 22 21 22 24 25 25 27 28 27 28 29 28 28 29 30 30 28 26 25 25 26 26 26 22 18 18 21 22 18 16 17 17 16 18 18 17 16 17 18 16 16 16 16 15 13 15 19 23 21 20 19 16 13
19 16 25 27 21 26 26 20 25 25 20 24 27 25 21 13 9 12 9 6 8 7 6 14 17 15 11 9 13 20 21 19 19 21 22 20 21 23 24 25 25 25 27 28 28 28 29 30 29 27 24 24 25 26 27 25 21 19 21 23 20 17 16 18 19 18 18 17 15 15 17 18 18 17 17 18 16 14 16 22 24 22 21 19 16 13
20 16 22 25 21 26 27 21 24 25 19 20 22 20 19 15 11 13 10 7 9 7 5 11 14 17 17 12 10 15 22 21 18 20 22 20 19 21 22 22 22 24 26 27 27 29 30 29 27 25 23 24 25 26 27 25 22 21 22 20 17 16 16 18 18 18 18 17 15 15 18 19 19 19 18 19 18 16 18 23 25 23 22 19 16 13
19 14 21 25 22 26 27 24 25 27 21 17 19 19 19 16 14 15 11 7 10 8 5 8 10 12 18 17 11 10 16 21 20 19 18 17 17 19 20 20 21 23 24 24 24 26 28 28 27 25 24 24 24 25 26 25 24 22 20 19 17 16 16 17 17 17 17 17 16 16 19 20 20 19 18 19 19 18 20 25 26 24 21 18 16 14
17 14 22 26 24 26 28 26 26 27 25 22 21 23 21 17 15 16 12 9 10 8 5 6 6 9 16 19 17 11 10 15 19 18 16 15 16 18 19 19 20 22 22 21 22 24 26 26 26 26 25 23 23 24 25 25 25 23 21 20 19 16 15 16 16 16 16 16 16 18 20 20 19 19 19 19 18 19 23 26 26 24 21 18 16 14
16 14 23 28 28 29 27 24 22 22 25 24 21 23 23 19 17 14 11 12 11 7 6 6 4 6 12 17 20 17 12 13 17 17 16 16 17 18 19 19 19 19 19 19 21 22 23 24 24 26 25 24 24 24 25 26 26 22 19 20 20 18 17 17 16 16 16 16 17 20 21 19 18 18 18 19 19 21 25 26 26 24 20 18 17 15
15 14 23 26 25 25 22 21 19 18 23 22 18 20 21 21 19 14 9 13 13 6 4 5 4 4 9 12 18 21 18 15 15 13 13 16 17 18 20 19 17 16 16 18 20 21 22 23 24 25 25 25 25 25 26 27 25 20 17 18 20 20 19 19 19 17 17 18 19 21 20 19 19 18 18 19 21 23 26 26 26 24 20 19 17 15
14 12 22 24 21 21 19 20 19 17 21 24 21 20 21 22 22 16 9 11 14 9 6 5 4 4 6 8 15 22 21 16 12 9 11 14 17 19 20 19 15 14 16 18 21 22 22 23 23 24 25 26 26 26 26 27 24 20 18 19 19 19 18 18 18 17 18 20 21 21 20 19 19 19 19 19 21 24 26 26 25 23 21 20 18 16
15 12 22 22 17 17 16 16 19 21 24 26 23 21 21 21 21 18 13 10 11 11 8 6 5 6 7 9 16 21 22 19 13 9 11 14 17 20 21 20 17 15 16 18 19 20 20 21 21 22 23 25 25 25 26 25 21 18 18 19 18 18 17 16 15 17 19 20 20 21 20 20 20 20 19 19 21 24 25 25 25 23 22 21 19 17
14 15 23 20 14 13 13 17 24 29 28 25 24 23 23 23 22 20 16 13 11 10 8 7 5 9 8 11 15 18 18 18 15 10 11 13 16 20 22 22 19 18 19 19 19 18 17 17 18 19 21 23 23 22 23 22 18 17 18 19 18 18 17 16 16 17 19 18 19 21 22 22 21 20 19 19 21 24 25 25 24 23 23 22 20 18
11 15 20 19 17 16 14 17 23 28 28 25 26 26 25 26 24 20 17 16 14 10 9 11 5 6 7 8 9 12 14 14 13 11 10 12 15 19 22 22 21 22 22 21 18 17 15 15 17 17 18 20 20 20 20 20 18 18 18 18 18 17 17 16 16 17 18 17 18 22 24 24 21 19 19 20 22 24 25 25 24 23 24 24 21 18
10 16 16 14 17 17 12 11 16 22 25 24 24 25 25 25 25 22 18 17 16 12 11 14 10 4 6 6 3 6 10 12 13 10 8 11 14 17 20 21 23 24 23 20 18 16 14 15 16 16 17 19 20 20 20 20 19 18 17 17 17 16 16 17 16 16 17 17 18 21 22 20 18 18 18 19 21 23 25 26 25 24 25 24 22 19
10 14 13 12 16 16 11 9 15 21 23 22 22 24 25 25 25 25 20 14 16 16 11 9 11 10 6 1 1 3 7 11 12 9 7 10 14 16 18 20 23 24 22 19 17 15 15 15 15 15 17 19 21 22 21 20 19 17 17 17 16 16 16 16 16 16 17 17 18 19 19 17 17 17 17 19 21 23 25 26 26 26 26 25 22 20
9 10 12 10 13 15 11 9 16 21 21 21 22 23 25 25 23 24 21 15 15 18 13 7 9 11 8 4 0 2 4 8 10 7 6 10 14 15 17 20 22 22 20 18 16 16 16 16 15 15 17 19 21 23 22 20 18 17 16 16 16 16 16 16 16 16 18 18 18 18 19 19 18 17 18 19 20 22 25 26 27 26 26 25 23 21
9 9 9 7 9 15 13 10 15 21 22 22 22 23 25 26 24 25 25 18 15 18 18 14 10 8 7 4 3 4 2 5 9 7 5 8 13 15 17 19 20 19 18 17 17 17 17 16 15 15 16 17 20 23 23 21 19 17 17 16 16 17 17 17 16 17 18 19 18 19 19 20 20 20 20 20 20 22 25 26 26 26 26 25 23 22
9 7 7 5 8 14 17 14 13 18 21 21 23 25 27 27 26 28 27 23 21 20 19 17 13 7 6 6 4 4 3 3 7 8 7 8 12 15 17 18 18 17 17 17 18 18 17 14 12 12 13 15 18 21 22 22 20 19 18 18 17 17 17 16 16 17 19 20 20 20 20 21 22 22 21 21 21 23 24 25 26 26 26 26 24 23
8 6 5 6 7 13 20 18 15 16 17 19 25 28 28 27 26 25 26 26 27 24 19 17 15 10 8 7 2 1 2 2 5 8 9 9 11 15 17 17 16 17 17 17 17 15 13 12 10 11 11 12 15 18 20 20 20 20 19 19 18 17 17 16 16 18 20 21 22 22 22 22 23 21 21 21 21 23 24 25 27 27 27 27 25 24
6 4 5 5 4 12 21 20 15 14 12 13 21 26 27 27 26 25 26 28 30 28 23 20 18 14 10 7 2 1 1 2 5 8 10 12 11 14 17 17 17 17 17 16 15 13 12 12 12 13 12 12 14 16 18 19 20 19 19 18 17 17 17 18 18 19 21 22 23 24 24 23 22 20 20 21 22 23 24 26 27 28 28 27 25 23
4 1 3 3 3 12 23 21 14 11 8 10 17 24 26 27 27 26 27 29 30 28 27 27 23 16 11 7 4 2 3 3 7 9 10 13 14 14 17 19 19 18 17 17 16 15 15 14 14 14 14 13 13 14 15 16 17 17 16 16 16 17 19 20 22 22 21 22 24 25 25 24 22 21 20 22 23 24 25 26 27 27 27 26 25 24
4 1 1 1 4 11 20 19 10 6 9 11 17 25 29 29 29 27 26 27 29 29 29 29 24 17 12 8 5 3 4 4 8 10 11 14 16 17 19 20 20 19 18 18 17 17 17 17 16 15 14 14 14 14 14 14 14 15 14 14 15 17 20 22 24 23 23 24 26 26 25 24 23 22 21 22 24 26 26 27 27 27 26 26 25 24
4 2 3 0 4 9 17 17 9 7 10 10 14 23 29 32 33 30 25 25 29 31 30 28 22 15 10 8 5 5 5 6 9 12 14 15 18 22 24 22 21 21 20 19 17 17 18 18 17 16 16 15 15 15 15 15 16 17 17 17 18 19 21 23 23 23 23 24 26 26 25 25 25 23 21 22 25 27 28 28 27 26 26 26 26 25
5 3 3 1 2 7 14 15 9 7 9 9 14 23 28 30 33 32 26 23 25 29 29 25 18 12 9 6 6 7 7 8 9 12 15 17 20 25 26 24 22 21 19 18 17 17 16 14 14 14 14 14 15 16 17 17 18 19 20 20 21 22 22 23 22 21 20 23 26 27 26 26 26 24 21 22 26 28 29 28 27 27 27 28 27 27
8 5 3 3 4 7 12 14 9 5 7 10 15 23 26 28 30 29 22 19 22 26 26 22 16 12 9 8 9 10 9 8 8 10 14 18 23 27 26 24 22 19 18 17 16 15 13 11 10 10 10 11 12 13 15 17 19 20 20 20 21 22 22 21 21 20 18 20 24 25 24 27 27 25 23 24 27 28 27 26 27 28 29 29 28 28
10 6 5 6 5 8 11 12 9 5 6 11 16 22 26 26 26 24 16 14 21 26 24 20 16 13 12 11 11 12 11 8 7 9 13 19 24 26 24 21 19 18 17 16 14 13 12 10 9 8 8 9 9 10 12 14 16 18 19 20 21 22 22 23 23 19 16 18 21 21 22 25 27 28 26 25 26 26 26 26 27 29 30 29 29 29
10 7 7 7 8 12 12 10 8 6 9 15 17 21 26 25 22 20 14 12 19 23 22 19 16 13 14 15 14 14 13 11 10 12 17 20 20 20 19 18 16 16 15 14 14 13 12 10 9 8 8 8 9 10 11 12 14 16 17 18 20 22 23 23 21 18 16 18 20 20 21 24 27 29 28 25 24 25 25 25 27 28 28 29 29 29
7 7 7 8 9 12 13 11 8 7 11 17 19 23 27 24 19 18 16 14 17 21 21 19 16 15 16 17 18 16 13 13 14 13 15 16 15 14 14 14 14 14 15 15 13 11 10 9 8 7 7 7 8 9 10 11 13 14 16 17 19 20 19 18 17 18 20 21 21 21 23 23 26 29 28 26 25 25 25 25 26 26 26 26 27 27
5 6 9 11 10 12 15 12 7 6 11 18 20 23 26 22 16 16 17 15 17 21 22 20 18 17 18 19 21 18 13 13 15 14 13 15 16 16 15 15 15 16 15 13 11 9 8 7 7 6 7 7 8 9 10 12 14 14 16 17 16 15 15 14 14 16 19 22 23 23 23 23 25 29 30 29 27 26 25 25 25 25 24 24 24 25
4 5 8 10 9 11 13 10 6 9 15 19 19 23 27 23 17 17 18 15 16 20 22 21 19 17 18 20 21 19 15 14 15 16 16 16 17 18 17 17 17 15 13 11 9 7 6 6 6 7 7 7 8 9 10 13 14 15 15 16 15 14 15 14 14 15 16 20 23 23 22 22 26 29 31 31 30 28 26 26 25 24 23 22 22 22
4 7 9 8 8 8 9 9 10 14 17 18 18 22 28 26 21 21 20 17 17 19 21 21 20 18 17 18 19 19 17 16 16 18 18 18 19 18 18 17 16 13 11 9 8 7 7 7 7 7 7 7 8 8 10 12 14 14 15 15 14 14 13 13 14 15 16 18 21 22 22 22 25 28 28 28 28 26 26 26 26 23 21 20 21 21
6 11 11 9 10 10 10 12 15 17 17 16 16 20 26 25 22 22 21 19 18 20 20 21 20 19 18 18 19 19 18 18 19 20 20 20 19 18 17 16 14 12 10 9 8 8 7 7 8 8 8 8 8 9 10 11 11 12 14 15 14 14 13 12 12 13 15 16 18 20 21 22 25 28 26 23 21 20 20 22 22 21 20 21 23 24
6 10 12 12 13 13 12 13 15 16 16 16 17 19 21 19 19 20 20 19 19 20 20 20 20 19 19 18 19 20 19 20 21 21 20 20 19 17 16 15 13 12 10 9 9 8 8 8 9 9 9 9 9 10 10 10 10 11 13 14 14 14 14 13 13 13 14 15 16 17 18 21 24 24 22 21 20 18 16 17 19 20 21 23 24 24
4 10 13 14 15 15 14 14 14 14 16 16 16 18 17 15 16 18 18 18 19 20 21 20 20 20 20 19 20 20 21 23 23 22 21 20 18 17 16 15 13 12 11 11 10 9 9 9 10 11 11 11 11 11 12 11 10 10 11 13 14 15 15 15 14 14 14 14 15 15 15 18 20 20 19 20 20 19 17 18 19 20 21 22 22 22
8 14 16 14 14 15 16 16 13 11 12 13 13 15 15 13 13 14 15 16 17 18 20 20 18 18 19 19 20 22 24 25 25 24 23 21 19 18 17 16 15 14 12 12 11 11 11 12 13 13 13 13 13 13 14 14 12 10 9 11 13 15 17 16 15 15 15 14 15 15 14 16 18 19 19 19 18 17 18 19 20 20 21 22 23 23
9 11 13 15 16 17 17 17 16 14 13 11 10 11 11 10 9 10 11 13 14 15 17 17 16 15 17 18 20 23 26 26 25 24 22 21 20 19 18 17 17 16 15 14 14 14 15 15 15 15 15 15 15 16 16 15 13 11 9 10 14 16 17 16 16 16 15 14 15 17 17 18 19 19 19 18 17 18 20 20 21 22 23 23 23 24
5 4 10 15 17 18 18 17 17 17 15 13 12 12 13 12 11 10 9 10 11 12 13 13 13 12 13 17 22 24 26 26 25 22 20 19 20 19 19 19 18 17 17 17 17 17 17 17 16 16 17 17 16 17 17 16 14 11 8 8 11 14 15 15 16 16 15 15 16 18 20 21 20 19 20 20 20 20 20 20 20 21 21 21 21 23
Wind_Direction
197 196 201 204 204 201 200 199 200 204 203 196 189 189 192 193 202 204 200 210 206 200 207 211 216 224 224 222 228 233 228 218 212 212 211 209 210 212 212 210 210 210 212 214 220 224 228 236 242 238 223 220 222 223 226 230 235 236 234 230 228 229 225 215 208 206 208 210 213 217 216 215 216 218 221 224 224 223 221 219 216 213 215 221 227 234
198 205 209 206 203 202 201 197 197 203 195 186 185 188 196 201 206 205 201 201 198 199 208 210 214 223 224 220 222 228 226 218 212 211 212 211 211 213 213 211 209 210 212 217 223 226 231 237 237 232 221 219 223 225 227 231 235 236 234 232 230 230 226 213 206 205 206 209 213 214 215 214 216 219 222 223 223 222 220 216 213 211 213 218 223 229
201 212 212 204 201 199 200 196 193 194 185 182 186 190 197 202 201 198 198 197 193 199 207 207 213 222 222 220 220 221 222 220 215 211 212 213 214 214 212 209 207 207 210 217 225 229 232 235 232 228 221 220 225 225 226 231 235 238 237 235 232 230 227 214 205 203 205 209 211 212 214 215 217 221 222 221 219 219 217 212 208 207 209 216 224 226
203 212 207 198 199 197 195 192 188 186 186 188 189 191 196 197 193 191 194 195 194 199 206 205 213 222 221 218 216 218 220 219 215 210 210 212 213 213 209 206 206 207 211 219 227 232 233 232 230 226 221 221 226 225 227 233 237 240 241 239 236 230 225 215 205 203 204 207 208 209 213 215 217 219 220 218 216 216 213 208 203 204 207 214 222 223
205 208 198 193 194 190 188 188 189 190 193 197 195 194 197 192 193 197 191 190 194 203 206 202 210 220 217 210 212 220 222 217 213 208 206 209 208 207 206 205 207 209 213 222 228 231 232 232 230 227 223 223 227 228 229 235 241 244 244 242 236 229 223 216 207 205 205 205 206 207 209 212 213 214 215 213 212 210 206 201 200 202 208 214 216 217
207 203 194 193 192 188 188 189 192 193 193 197 197 197 196 190 191 194 181 178 186 204 206 199 207 219 213 211 215 221 223 217 214 210 205 207 206 204 205 207 210 212 215 221 225 228 230 231 231 229 226 226 228 230 232 237 242 245 245 242 235 226 220 216 212 208 206 204 203 204 208 213 213 212 212 209 205 203 199 197 198 202 208 211 209 210
207 199 192 194 194 191 193 195 194 191 191 195 194 191 191 188 185 182 176 179 191 204 204 202 213 220 208 213 215 213 219 220 217 214 208 206 205 204 206 209 212 213 215 219 222 225 227 229 230 229 227 228 228 231 234 237 240 244 245 238 229 224 220 218 215 210 207 205 202 204 210 216 217 213 208 204 200 198 196 196 198 203 207 205 203 206
202 194 192 194 193 191 193 196 191 188 192 198 191 186 184 184 186 184 183 192 200 196 193 200 213 228 216 211 207 206 214 218 218 218 212 208 208 207 208 210 212 212 214 218 221 226 229 231 232 230 228 229 229 231 235 238 241 243 240 231 220 220 224 223 217 211 209 208 208 209 213 216 215 209 201 197 196 193 193 197 200 206 207 202 199 204
197 194 193 191 190 190 193 193 187 186 192 192 182 184 186 185 190 190 192 201 203 191 194 198 205 226 227 199 193 202 209 211 216 220 216 211 210 210 210 211 213 214 215 219 223 229 232 234 235 232 230 230 228 231 235 238 241 236 228 225 221 220 226 226 219 215 213 210 210 208 210 213 209 202 197 194 192 189 191 197 201 207 206 200 199 205
193 194 190 188 189 190 190 188 183 183 187 176 167 173 179 180 185 190 198 205 203 208 212 198 196 212 224 196 188 196 204 208 216 221 219 215 212 212 214 215 217 218 220 222 226 231 235 237 236 233 231 231 229 230 233 238 244 240 228 224 228 225 227 226 220 218 215 209 208 205 202 206 205 199 196 192 189 190 194 198 203 205 202 198 201 207
188 190 189 189 190 186 184 182 181 181 179 167 163 163 167 171 180 188 201 207 206 219 218 201 196 206 222 208 196 199 209 212 214 216 217 218 217 217 219 221 223 224 226 227 230 233 236 237 236 232 231 231 227 227 230 235 244 247 241 234 236 232 229 229 224 221 217 208 208 206 196 198 203 199 192 188 189 193 197 202 204 202 198 197 202 210
184 187 189 189 186 181 177 173 177 181 179 169 168 166 164 167 177 185 197 206 213 220 213 205 198 205 221 213 198 209 218 214 210 211 214 218 220 221 223 224 226 228 229 230 233 234 233 233 234 232 229 227 224 223 227 234 241 251 260 255 245 235 228 226 224 222 219 208 204 205 199 199 203 198 188 185 190 194 199 205 205 200 196 197 206 213
182 184 186 185 183 180 176 169 171 182 185 179 176 174 171 166 173 187 195 201 214 218 205 198 193 205 222 217 200 211 217 213 210 211 213 219 223 225 227 228 228 231 232 231 232 232 230 231 232 230 226 224 224 225 228 235 241 252 265 259 246 237 224 219 217 217 218 210 202 205 208 207 201 193 188 187 191 194 200 208 205 199 196 201 210 215
174 183 185 183 183 184 180 173 172 181 187 187 184 180 179 174 172 190 192 190 206 204 186 187 192 209 223 224 223 217 208 208 212 214 213 215 219 223 228 230 231 233 232 231 230 228 226 228 229 227 225 224 228 231 232 236 241 248 255 256 251 242 225 217 214 211 214 211 204 206 212 210 196 191 192 189 189 193 200 211 205 195 196 206 213 216
168 179 185 183 183 184 184 182 178 178 184 190 189 187 190 189 181 189 190 191 196 185 169 178 194 211 211 215 222 218 210 205 208 212 215 216 217 221 227 231 232 232 230 228 227 224 222 225 227 226 225 228 232 234 237 239 240 241 248 258 258 246 230 224 215 206 210 211 207 205 208 208 196 193 193 185 185 194 205 211 201 192 197 210 215 216
175 181 183 181 183 182 183 185 180 174 181 189 191 197 202 197 187 179 173 182 183 176 173 183 196 208 203 210 217 214 216 215 214 214 216 221 223 225 229 232 234 233 228 225 223 220 220 223 226 227 227 230 233 236 239 240 239 239 244 254 253 243 235 233 223 210 208 210 211 207 206 209 204 201 199 188 185 197 212 208 196 193 202 211 215 216
179 178 177 178 184 184 182 182 182 178 178 184 191 200 203 199 190 171 123 106 159 181 181 185 197 202 208 230 228 218 219 218 221 222 218 219 221 223 227 230 234 233 226 222 221 220 220 223 226 228 229 231 233 236 239 239 239 237 239 245 248 246 243 239 231 220 210 207 213 215 213 214 213 209 203 196 195 207 217 204 193 196 206 211 214 214
171 162 170 177 181 184 183 180 185 188 181 182 191 193 188 189 193 184 168 138 171 200 175 179 201 206 207 223 213 215 220 215 215 217 214 215 217 220 225 228 232 230 224 223 222 222 223 224 226 227 229 230 231 235 238 238 237 233 235 242 248 249 242 233 227 220 209 205 210 214 214 216 216 210 200 196 202 216 215 200 193 200 208 211 213 213
169 154 168 180 178 178 182 181 188 195 193 189 189 182 176 181 187 186 184 174 184 206 189 183 203 210 211 208 187 205 217 212 207 207 207 210 214 219 223 224 227 227 226 227 226 225 224 225 227 229 229 228 228 232 235 236 234 231 236 242 243 239 228 220 217 211 205 207 211 215 216 215 212 209 202 199 208 219 211 196 194 202 208 211 213 214
174 158 165 179 178 173 180 190 192 192 192 191 189 186 190 197 196 190 190 185 186 200 207 190 196 207 210 209 198 200 208 207 206 204 202 206 212 218 220 220 223 225 227 228 224 222 222 225 229 231 230 225 225 231 234 235 233 231 233 235 234 228 215 206 205 204 207 216 219 217 216 214 209 206 204 204 213 218 206 195 196 204 209 212 214 216
174 162 161 171 176 177 185 194 193 187 184 187 189 189 192 195 195 194 197 201 199 203 205 193 198 211 209 208 207 200 191 196 202 205 208 210 211 215 216 216 218 220 222 222 219 217 219 223 228 230 227 221 223 229 233 234 233 230 230 231 228 219 204 201 204 206 215 220 214 208 209 210 208 206 206 209 213 210 200 196 201 207 211 213 216 218
176 164 161 167 176 185 190 190 189 190 188 188 190 190 190 188 186 187 192 200 206 211 203 202 219 211 202 204 207 206 200 192 194 202 211 212 211 210 208 207 209 213 217 219 220 220 221 226 230 229 226 222 222 226 230 234 233 231 230 227 222 210 197 198 205 211 216 214 207 206 207 206 205 207 211 211 210 204 198 199 205 210 212 215 218 219
177 165 164 169 177 185 189 187 188 192 190 190 195 194 193 192 191 191 183 183 193 205 183 189 208 190 190 205 208 205 200 188 185 195 207 210 210 205 199 199 205 215 221 221 221 223 225 229 231 229 226 224 222 223 228 233 234 233 225 216 215 211 203 200 202 206 208 206 207 210 208 204 204 209 213 211 207 202 199 201 208 211 213 218 220 221
176 165 162 164 169 174 180 188 192 192 190 194 199 197 195 195 195 197 185 170 182 188 167 171 193 184 187 206 205 198 193 191 195 205 209 210 208 201 196 196 204 217 222 221 221 222 225 228 231 231 229 225 222 221 226 231 235 233 221 213 214 214 208 203 200 199 200 202 207 209 205 202 207 212 215 211 205 201 201 204 209 211 214 219 221 221
177 167 162 159 160 165 172 185 192 194 194 196 197 196 193 191 192 197 193 177 182 186 181 188 181 160 171 185 190 194 199 207 213 212 210 209 204 200 197 197 204 213 218 219 218 218 223 228 234 237 233 228 223 222 226 232 233 224 212 210 213 211 206 205 203 200 199 200 204 207 204 205 211 216 217 211 203 201 204 207 209 211 215 220 221 222
177 171 170 168 167 170 175 184 188 189 191 194 195 193 191 189 189 191 191 189 189 180 183 202 149 120 150 177 185 196 207 214 218 216 213 209 203 201 202 206 211 215 217 218 216 217 223 232 239 240 234 229 224 222 225 230 225 209 200 201 206 205 204 205 206 203 201 200 203 206 207 209 214 218 215 208 203 204 207 209 210 212 216 219 221 221
183 179 179 182 185 183 182 185 188 186 187 192 192 191 192 192 191 191 192 194 192 176 186 211 195 106 138 162 176 198 209 216 219 217 213 210 205 205 208 213 217 216 217 217 214 215 222 233 241 240 232 225 219 216 218 221 216 205 199 200 202 202 204 208 208 205 204 204 207 211 212 210 210 214 213 209 206 208 210 211 210 213 217 219 221 222
183 182 185 194 192 188 180 179 185 186 188 191 191 191 191 192 192 196 199 198 196 193 196 208 223 218 160 139 134 189 199 208 213 210 206 206 206 207 210 214 214 214 214 211 206 209 218 230 239 235 225 217 211 210 212 214 212 207 203 203 204 206 209 212 212 208 208 210 212 219 221 215 211 213 214 213 211 212 212 211 212 215 218 220 221 223
178 180 187 196 194 188 180 174 177 181 186 188 189 190 190 191 194 196 200 198 195 199 199 196 213 224 209 176 2 171 182 197 204 205 201 198 203 210 213 211 207 206 204 200 199 205 215 228 236 229 219 212 207 207 208 208 207 203 199 200 204 210 213 216 216 213 214 216 216 221 225 221 219 219 219 218 216 214 214 213 213 216 219 222 223 226
173 178 182 190 199 194 185 177 175 178 182 186 188 189 189 192 195 195 198 199 197 206 218 217 216 229 245 261 241 130 171 191 195 202 205 197 199 203 202 197 194 193 191 191 196 203 212 225 231 222 214 211 209 207 205 203 201 199 197 198 204 212 215 217 216 215 218 221 221 222 222 222 223 225 226 226 221 217 215 215 215 218 221 224 226 229
170 174 171 173 200 199 191 181 179 182 185 186 189 190 189 191 194 196 200 203 206 215 226 231 232 242 245 217 130 87 116 183 189 196 196 188 187 185 183 182 181 182 184 189 198 203 209 220 223 216 212 211 210 208 206 202 200 201 203 205 210 216 218 216 214 216 221 223 223 223 221 220 222 225 228 228 224 220 218 217 218 220 223 226 229 232
169 166 166 177 196 192 186 181 179 184 188 191 193 192 190 192 194 197 201 204 205 211 222 231 238 239 210 186 142 86 95 174 197 197 186 175 173 173 176 176 177 182 185 191 198 202 207 214 213 209 211 211 210 210 209 208 206 208 211 213 217 221 221 218 214 216 221 223 224 224 221 218 219 223 226 225 223 222 221 220 222 223 225 228 230 233
174 171 173 195 195 178 177 179 175 176 186 198 200 195 191 192 194 196 202 204 202 206 216 226 233 227 195 179 167 93 119 176 207 204 198 189 176 174 179 181 182 183 184 187 193 195 197 196 190 192 201 203 204 207 210 213 215 217 219 221 223 226 229 227 223 221 222 224 225 225 222 220 221 224 227 225 223 224 223 223 225 225 226 228 230 233
167 170 167 186 188 168 171 175 175 181 191 197 197 194 192 193 194 195 201 202 199 201 205 209 218 219 198 185 209 265 252 205 207 213 212 207 195 185 184 185 181 176 174 177 179 178 178 180 181 186 191 195 198 201 207 213 218 223 226 228 231 233 233 232 231 229 227 227 228 227 225 224 225 228 229 226 224 225 225 225 226 225 226 227 230 234
156 134 153 177 176 160 167 174 179 189 192 181 187 193 194 197 197 197 201 200 196 198 199 201 208 213 207 205 212 240 289 241 207 215 216 210 206 196 186 182 174 166 166 170 172 173 175 180 186 191 197 203 205 206 209 214 219 224 228 230 233 236 237 237 236 234 233 232 231 230 228 227 227 228 230 228 225 225 226 226 226 226 227 228 231 234
168 344 16 186 163 153 168 179 182 183 183 185 193 194 193 197 198 200 207 208 204 203 206 210 216 221 226 229 223 242 277 234 205 210 208 204 202 191 181 177 171 165 169 176 179 181 184 189 195 198 202 211 216 219 221 223 227 231 233 234 234 236 239 241 240 237 235 234 233 232 230 229 230 230 229 229 228 227 227 227 228 228 229 231 233 234
190 309 352 309 172 164 173 175 170 178 187 197 201 193 193 198 198 199 207 214 210 208 211 218 223 224 228 232 230 250 246 209 202 206 202 202 198 184 177 175 173 173 179 186 190 194 197 200 204 206 210 216 221 226 229 232 235 238 241 241 242 244 245 245 243 239 235 232 232 232 230 230 232 232 231 231 230 229 228 228 230 231 232 234 236 236
223 286 345 333 200 184 176 168 169 188 181 188 200 193 191 196 196 197 205 214 212 208 211 220 223 218 220 219 216 231 221 198 202 206 201 201 195 184 179 180 179 181 188 194 200 205 208 212 218 222 225 227 231 234 236 239 243 246 248 247 248 249 248 247 245 242 236 231 229 229 229 230 232 233 232 232 233 232 229 228 230 233 234 235 237 237
242 286 300 273 233 203 184 171 172 172 152 173 195 191 189 191 190 192 202 215 213 207 209 217 216 209 210 210 208 211 200 187 201 207 200 197 191 184 182 181 182 187 194 200 206 211 213 215 219 224 228 231 235 239 241 245 249 252 254 252 250 249 246 245 245 244 241 237 232 231 232 231 229 230 231 232 233 232 229 228 231 234 235 236 238 239
249 272 271 258 229 209 195 174 159 146 157 182 188 184 184 184 182 185 197 209 207 205 207 210 207 203 207 209 206 198 182 173 188 182 174 180 182 178 176 178 183 192 198 203 207 203 194 187 186 192 201 210 217 224 233 242 248 252 254 253 251 249 245 244 243 238 235 237 237 238 238 233 228 229 232 233 231 231 230 230 231 234 236 238 239 241
241 246 253 246 208 194 192 171 146 152 180 184 181 180 180 175 174 184 192 192 197 202 203 200 197 202 208 204 198 190 177 172 178 164 155 163 169 166 168 176 188 198 200 196 189 179 171 170 176 186 199 209 215 216 221 231 241 247 251 252 252 250 248 248 246 239 235 238 238 239 239 235 232 233 233 231 230 232 234 232 233 235 237 239 241 243
227 230 230 219 198 186 182 168 147 152 174 178 177 179 177 169 170 185 188 185 193 200 199 194 194 204 206 196 191 191 180 173 180 177 168 173 180 182 184 188 194 197 190 181 175 173 173 180 189 200 212 225 232 231 229 231 236 241 247 251 253 253 253 255 255 248 245 245 241 238 238 236 232 233 232 230 229 232 233 232 233 236 237 239 242 244
224 211 188 182 182 179 176 173 164 154 165 172 174 177 177 173 176 187 187 185 191 195 195 195 197 200 195 187 189 193 183 173 180 185 184 187 190 194 194 191 188 187 182 179 180 183 187 196 207 218 226 234 242 247 246 242 239 239 243 246 249 252 252 250 251 253 254 254 251 247 244 236 230 231 233 231 229 230 229 227 230 235 237 240 243 245
228 201 171 166 171 173 173 177 177 164 163 166 169 177 182 185 191 194 191 190 191 192 195 197 197 191 183 183 191 193 183 177 183 185 185 186 186 187 188 187 187 187 186 188 193 198 212 228 234 237 240 241 247 254 255 253 250 246 242 239 240 246 248 243 242 248 253 255 256 255 249 238 230 230 232 230 227 231 233 228 226 229 234 239 245 252
204 183 172 167 162 159 159 160 158 158 160 163 168 179 186 191 197 199 200 201 197 193 195 198 195 188 183 186 193 193 185 181 184 184 183 183 184 185 187 187 190 192 193 200 211 222 237 248 252 258 264 264 264 264 261 261 261 255 247 239 235 239 244 242 240 239 238 243 250 251 247 239 229 226 227 224 224 230 236 231 224 223 230 238 246 255
165 159 164 162 145 131 127 138 148 150 154 158 163 174 184 191 198 201 202 204 198 192 194 195 192 191 192 193 196 196 191 185 186 187 186 185 185 186 188 189 193 197 202 212 225 236 247 259 267 274 280 282 281 278 272 270 268 260 251 242 236 236 237 237 237 234 231 235 240 241 240 235 227 225 225 223 224 228 230 226 223 225 233 241 248 255
148 144 149 151 146 137 126 131 140 141 144 153 161 169 177 186 194 197 199 201 198 194 193 194 194 195 198 199 200 200 194 187 187 189 187 187 188 187 190 194 197 202 211 222 231 242 255 264 270 275 280 284 287 285 281 278 275 265 251 239 233 233 234 233 231 230 232 233 234 235 234 228 223 223 221 217 220 226 227 227 232 238 242 245 249 254
162 146 146 148 151 149 140 138 143 145 141 142 151 159 164 172 182 187 191 194 194 194 194 197 200 203 203 204 205 201 194 190 192 192 190 192 194 195 198 204 207 211 221 227 233 245 255 258 263 268 273 281 288 289 287 283 279 271 251 234 227 228 231 232 227 226 230 229 224 224 221 213 210 215 219 221 226 231 235 237 241 245 248 249 251 251
164 150 146 147 150 150 143 138 145 155 148 138 142 150 153 157 166 172 176 181 185 190 194 198 203 205 204 205 205 200 195 192 194 196 197 200 203 205 207 213 217 220 225 229 235 244 249 252 258 263 269 278 284 288 288 285 283 277 256 234 227 227 231 233 229 225 227 226 221 217 208 198 200 211 222 229 231 232 235 239 242 248 251 252 252 252
152 145 147 150 152 153 148 140 139 145 148 147 147 149 152 161 169 170 171 176 180 185 191 195 198 201 202 201 200 198 197 195 195 197 202 205 209 211 215 219 223 225 227 232 238 243 248 253 260 265 271 278 281 284 286 286 283 278 260 238 231 229 230 233 233 231 229 224 221 216 205 198 203 213 221 227 229 232 238 245 250 256 258 256 255 254
165 156 152 153 151 151 152 150 148 149 155 160 156 152 159 172 182 186 188 189 187 188 190 191 193 195 197 198 198 197 198 199 199 198 202 209 214 217 220 222 223 226 229 234 240 245 251 259 265 269 274 277 279 281 285 286 283 277 266 243 231 225 225 230 233 232 230 225 219 213 208 206 209 215 221 228 234 240 246 254 261 263 260 256 255 255
Height
3046 3048 3046 3045 3047 3052 3056 3061 3066 3070 3072 3073 3077 3081 3083 3086 3088 3091 3094 3093 3096 3100 3101 3104 3106 3106 3109 3112 3113 3112 3114 3116 3118 3120 3122 3124 3126 3129 3131 3134 3137 3138 3140 3141 3142 3143 3144 3145 3145 3146 3146 3147 3147 3148 3148 3149 3149 3149 3149 3149 3150 3150 3150 3151 3153 3155 3157 3159 3162 3164 3166 3167 3169 3171 3173 3174 3176 3177 3177 3178 3179 3179 3179 3179 3180 3180
3044 3042 3040 3043 3049 3054 3057 3061 3066 3068 3070 3072 3075 3078 3081 3085 3087 3089 3092 3092 3094 3098 3100 3102 3104 3104 3106 3110 3111 3110 3111 3112 3115 3117 3119 3122 3124 3126 3129 3132 3135 3136 3137 3139 3139 3140 3142 3143 3143 3143 3144 3144 3145 3146 3146 3147 3147 3147 3147 3147 3148 3148 3149 3150 3151 3154 3156 3158 3161 3163 3164 3166 3168 3170 3171 3173 3174 3175 3176 3178 3178 3178 3178 3178 3179 3179
3039 3036 3038 3044 3050 3054 3056 3060 3064 3066 3069 3071 3073 3076 3079 3081 3085 3087 3090 3090 3092 3095 3098 3100 3101 3101 3104 3107 3108 3108 3108 3110 3113 3115 3117 3120 3123 3125 3128 3131 3132 3134 3135 3136 3137 3138 3140 3140 3140 3141 3141 3142 3143 3144 3144 3144 3144 3145 3145 3146 3146 3147 3148 3150 3151 3153 3155 3157 3159 3162 3163 3164 3166 3168 3169 3171 3172 3174 3175 3176 3177 3177 3177 3177 3178 3178
3033 3033 3039 3044 3048 3051 3054 3058 3062 3064 3067 3069 3070 3073 3075 3078 3081 3084 3086 3089 3090 3093 3096 3098 3099 3100 3101 3103 3104 3104 3106 3109 3111 3113 3115 3117 3120 3123 3126 3128 3130 3131 3133 3133 3134 3136 3136 3137 3138 3139 3140 3140 3140 3141 3141 3142 3142 3143 3144 3144 3145 3147 3148 3149 3150 3151 3153 3155 3157 3160 3161 3163 3165 3166 3167 3169 3170 3172 3174 3175 3175 3175 3175 3176 3176 3177
3031 3034 3039 3043 3046 3049 3052 3055 3058 3061 3064 3066 3068 3071 3073 3076 3079 3081 3084 3087 3090 3092 3094 3096 3097 3097 3097 3099 3099 3100 3103 3106 3107 3109 3112 3114 3117 3120 3122 3125 3127 3129 3130 3131 3132 3133 3133 3135 3136 3137 3138 3138 3138 3139 3140 3140 3140 3141 3142 3143 3144 3145 3147 3148 3149 3150 3152 3153 3156 3157 3159 3161 3163 3164 3165 3167 3169 3171 3172 3173 3173 3174 3174 3175 3175 3176
3032 3035 3037 3041 3044 3047 3050 3052 3055 3059 3062 3064 3066 3069 3072 3075 3077 3080 3082 3084 3088 3089 3090 3093 3093 3091 3093 3095 3095 3097 3099 3101 3104 3106 3109 3112 3114 3117 3119 3122 3124 3126 3127 3128 3128 3130 3131 3132 3133 3134 3135 3135 3136 3137 3137 3138 3139 3139 3140 3141 3142 3144 3146 3147 3148 3149 3150 3152 3154 3157 3159 3161 3162 3163 3164 3166 3167 3169 3170 3171 3171 3172 3173 3174 3174 3175
3031 3034 3036 3039 3042 3045 3048 3051 3053 3058 3061 3062 3064 3068 3071 3074 3076 3079 3080 3082 3084 3084 3086 3089 3088 3086 3089 3091 3092 3094 3096 3098 3101 3104 3107 3110 3112 3114 3117 3119 3122 3123 3124 3124 3125 3127 3129 3130 3131 3131 3133 3133 3134 3135 3135 3135 3136 3137 3137 3139 3141 3143 3145 3145 3147 3149 3150 3152 3154 3156 3158 3160 3161 3162 3163 3165 3166 3167 3168 3169 3170 3171 3172 3173 3173 3173
3028 3031 3034 3037 3040 3042 3045 3047 3051 3056 3059 3060 3062 3066 3069 3072 3075 3077 3079 3081 3081 3082 3085 3087 3087 3085 3083 3085 3088 3091 3092 3095 3098 3100 3104 3107 3109 3111 3114 3117 3118 3119 3120 3122 3123 3125 3126 3128 3129 3129 3131 3132 3133 3133 3133 3134 3135 3135 3134 3136 3140 3143 3144 3145 3146 3148 3149 3151 3153 3154 3156 3158 3159 3161 3162 3163 3164 3165 3166 3167 3169 3170 3171 3172 3172 3172
3026 3029 3031 3034 3037 3039 3042 3045 3049 3054 3059 3059 3061 3065 3069 3072 3074 3076 3079 3079 3080 3081 3082 3083 3086 3084 3080 3081 3085 3087 3090 3093 3094 3096 3100 3103 3106 3109 3111 3113 3115 3117 3118 3120 3121 3122 3124 3125 3126 3127 3129 3130 3131 3131 3131 3132 3132 3129 3130 3135 3139 3142 3143 3143 3145 3146 3148 3149 3151 3152 3154 3156 3158 3159 3160 3161 3162 3163 3164 3166 3167 3169 3170 3170 3171 3171
3025 3027 3030 3033 3035 3037 3041 3046 3049 3053 3057 3058 3060 3065 3069 3071 3074 3076 3077 3078 3079 3079 3077 3077 3081 3081 3078 3079 3082 3084 3086 3088 3090 3093 3097 3100 3103 3105 3108 3111 3113 3114 3116 3117 3118 3119 3121 3123 3124 3125 3127 3128 3129 3129 3129 3131 3127 3122 3128 3137 3140 3141 3141 3141 3143 3145 3146 3147 3150 3151 3152 3154 3156 3157 3158 3159 3161 3162 3163 3164 3166 3167 3168 3169 3170 3170
3024 3027 3030 3032 3035 3037 3041 3045 3048 3053 3057 3058 3060 3064 3068 3071 3073 3075 3076 3077 3077 3075 3073 3074 3077 3078 3076 3075 3078 3080 3081 3084 3088 3092 3095 3097 3100 3103 3106 3108 3110 3111 3113 3114 3115 3117 3118 3120 3121 3122 3124 3126 3127 3127 3127 3128 3122 3120 3129 3139 3140 3140 3139 3140 3142 3143 3144 3146 3148 3149 3150 3152 3154 3155 3156 3158 3159 3161 3162 3163 3165 3165 3166 3168 3169 3169
3023 3025 3028 3031 3034 3037 3041 3044 3047 3052 3055 3057 3059 3062 3065 3069 3072 3074 3075 3076 3073 3070 3070 3072 3076 3078 3074 3071 3074 3077 3078 3082 3087 3090 3093 3095 3097 3100 3103 3105 3107 3108 3110 3112 3113 3114 3116 3117 3118 3120 3122 3124 3125 3125 3125 3124 3121 3124 3132 3137 3137 3136 3136 3139 3141 3142 3144 3145 3146 3148 3149 3150 3152 3153 3155 3157 3158 3160 3161 3162 3163 3164 3165 3167 3168 3168
3021 3023 3027 3030 3032 3036 3039 3042 3046 3051 3053 3055 3057 3058 3060 3063 3068 3070 3069 3070 3069 3067 3068 3071 3073 3075 3072 3071 3074 3075 3078 3081 3084 3088 3091 3093 3096 3098 3100 3102 3104 3105 3107 3109 3110 3112 3113 3115 3117 3118 3120 3122 3122 3123 3122 3120 3122 3127 3131 3132 3133 3135 3136 3137 3139 3141 3143 3144 3146 3148 3149 3150 3151 3152 3154 3155 3157 3158 3160 3161 3162 3163 3165 3166 3167 3167
3020 3023 3026 3028 3030 3033 3036 3037 3040 3043 3047 3049 3050 3052 3052 3054 3060 3063 3061 3063 3066 3066 3067 3071 3072 3071 3070 3071 3072 3074 3077 3080 3082 3086 3089 3092 3094 3095 3097 3098 3100 3102 3104 3106 3107 3109 3111 3113 3115 3116 3118 3119 3120 3120 3119 3118 3123 3127 3128 3129 3130 3133 3135 3134 3136 3139 3142 3144 3146 3147 3148 3149 3150 3151 3152 3152 3154 3156 3158 3159 3160 3162 3164 3165 3165 3166
3016 3018 3021 3024 3027 3030 3033 3035 3036 3039 3044 3047 3048 3051 3050 3049 3053 3056 3056 3058 3060 3062 3067 3071 3070 3068 3068 3069 3069 3072 3076 3078 3080 3083 3086 3088 3089 3091 3093 3095 3096 3099 3101 3102 3104 3106 3108 3110 3112 3114 3116 3117 3118 3117 3116 3118 3122 3124 3126 3127 3127 3129 3131 3132 3134 3138 3140 3142 3144 3145 3147 3148 3149 3149 3149 3149 3152 3154 3156 3158 3159 3161 3163 3164 3164 3165
3015 3016 3019 3023 3026 3028 3031 3035 3038 3041 3044 3047 3049 3051 3049 3049 3052 3054 3054 3055 3057 3060 3064 3067 3067 3065 3066 3067 3067 3070 3073 3076 3078 3080 3082 3084 3086 3088 3090 3092 3094 3096 3098 3100 3102 3104 3106 3108 3110 3112 3114 3115 3115 3114 3114 3116 3119 3122 3124 3124 3123 3125 3128 3130 3132 3136 3138 3139 3141 3143 3145 3147 3147 3148 3148 3149 3151 3153 3155 3156 3158 3160 3161 3162 3163 3164
3014 3016 3019 3023 3026 3028 3031 3034 3037 3039 3041 3044 3046 3046 3048 3050 3053 3054 3055 3057 3058 3060 3061 3063 3064 3065 3066 3065 3066 3068 3071 3073 3075 3078 3080 3082 3084 3086 3088 3090 3092 3093 3096 3098 3100 3102 3103 3105 3108 3110 3112 3112 3112 3112 3112 3114 3117 3121 3122 3121 3121 3124 3126 3128 3130 3133 3135 3137 3139 3141 3143 3145 3146 3147 3148 3149 3150 3152 3154 3155 3157 3159 3160 3161 3162 3163
3012 3014 3018 3022 3025 3028 3031 3035 3037 3039 3040 3042 3043 3044 3048 3052 3053 3053 3054 3057 3059 3059 3058 3060 3062 3063 3064 3063 3063 3066 3069 3071 3073 3075 3078 3080 3081 3084 3086 3087 3089 3091 3094 3096 3098 3099 3101 3103 3106 3108 3109 3109 3109 3109 3109 3112 3116 3118 3118 3119 3121 3124 3125 3126 3128 3131 3134 3136 3137 3139 3141 3144 3145 3145 3146 3148 3149 3151 3152 3154 3155 3157 3158 3160 3161 3161
3011 3014 3019 3023 3025 3027 3032 3034 3036 3038 3040 3041 3043 3045 3047 3049 3050 3051 3052 3055 3057 3057 3056 3058 3060 3061 3061 3061 3062 3065 3067 3069 3072 3073 3075 3078 3080 3082 3083 3086 3088 3090 3092 3094 3095 3097 3099 3101 3103 3105 3106 3106 3107 3107 3107 3110 3114 3115 3116 3118 3121 3122 3123 3125 3127 3129 3132 3134 3135 3137 3140 3142 3143 3143 3145 3146 3148 3149 3151 3153 3154 3155 3157 3158 3159 3160
3010 3012 3017 3022 3025 3028 3031 3031 3031 3034 3037 3040 3042 3044 3045 3047 3048 3049 3050 3051 3052 3054 3055 3056 3057 3057 3059 3060 3062 3064 3065 3068 3071 3072 3074 3076 3078 3079 3082 3084 3086 3088 3090 3091 3093 3094 3097 3099 3101 3103 3104 3104 3104 3104 3105 3107 3110 3113 3115 3116 3118 3119 3121 3123 3126 3128 3130 3132 3133 3135 3137 3139 3140 3141 3143 3144 3146 3148 3149 3151 3152 3154 3156 3157 3158 3158
3010 3011 3014 3019 3024 3026 3026 3026 3028 3031 3034 3037 3038 3041 3043 3045 3046 3047 3049 3049 3049 3050 3052 3054 3055 3054 3056 3059 3061 3063 3065 3067 3069 3071 3073 3074 3076 3078 3080 3082 3084 3086 3087 3089 3090 3092 3095 3097 3099 3100 3101 3101 3102 3102 3102 3105 3107 3110 3113 3114 3116 3118 3120 3122 3124 3126 3128 3129 3131 3132 3134 3137 3138 3139 3141 3142 3144 3146 3147 3149 3151 3152 3154 3155 3156 3157
3010 3011 3012 3016 3020 3022 3023 3025 3029 3032 3034 3036 3037 3039 3041 3043 3044 3045 3046 3049 3049 3048 3049 3052 3053 3052 3053 3056 3059 3062 3064 3066 3067 3069 3071 3072 3074 3076 3078 3080 3082 3084 3085 3087 3089 3091 3093 3095 3096 3097 3098 3099 3099 3099 3100 3101 3104 3108 3112 3113 3115 3117 3119 3121 3123 3125 3126 3128 3129 3131 3133 3135 3136 3138 3139 3141 3142 3144 3145 3147 3149 3151 3153 3154 3155 3156
3009 3010 3012 3015 3018 3021 3025 3027 3030 3032 3034 3037 3038 3039 3041 3042 3043 3043 3044 3047 3049 3049 3049 3050 3051 3050 3051 3054 3057 3060 3062 3063 3066 3068 3069 3071 3072 3074 3077 3079 3080 3082 3084 3085 3087 3089 3091 3092 3094 3095 3096 3096 3097 3098 3097 3098 3102 3107 3111 3112 3113 3115 3117 3119 3121 3123 3124 3126 3128 3130 3131 3133 3135 3136 3138 3139 3141 3142 3144 3146 3148 3150 3151 3152 3153 3154
3008 3009 3012 3015 3018 3023 3026 3029 3031 3033 3035 3036 3036 3038 3039 3041 3043 3044 3044 3046 3048 3049 3049 3050 3051 3050 3050 3052 3055 3057 3060 3062 3064 3066 3067 3069 3071 3073 3075 3077 3079 3081 3082 3084 3085 3087 3089 3090 3091 3092 3094 3094 3095 3096 3095 3096 3101 3106 3108 3110 3112 3114 3115 3117 3119 3121 3122 3124 3126 3128 3129 3131 3133 3135 3136 3138 3139 3141 3142 3144 3146 3148 3149 3150 3152 3153
3008 3009 3011 3012 3015 3020 3025 3028 3030 3031 3032 3032 3033 3036 3038 3040 3043 3044 3045 3046 3047 3048 3048 3048 3048 3048 3049 3051 3053 3056 3059 3061 3063 3064 3066 3067 3069 3071 3074 3076 3078 3080 3081 3082 3084 3085 3087 3088 3090 3091 3092 3092 3093 3094 3094 3094 3099 3103 3106 3108 3110 3112 3114 3115 3117 3119 3120 3122 3125 3126 3127 3129 3131 3133 3134 3136 3138 3139 3141 3143 3144 3146 3147 3149 3150 3151
3008 3009 3010 3010 3011 3014 3016 3016 3018 3021 3025 3028 3031 3034 3036 3039 3041 3043 3045 3046 3046 3047 3048 3047 3045 3047 3050 3052 3053 3055 3057 3059 3061 3063 3064 3066 3068 3070 3073 3075 3077 3078 3079 3081 3082 3084 3086 3087 3088 3089 3090 3091 3092 3093 3093 3093 3096 3101 3104 3106 3108 3110 3112 3114 3115 3118 3119 3121 3124 3125 3125 3127 3129 3131 3133 3134 3136 3138 3140 3141 3143 3144 3146 3147 3148 3149
3009 3009 3010 3010 3010 3010 3011 3012 3015 3018 3022 3025 3028 3031 3034 3037 3040 3042 3044 3045 3045 3047 3049 3048 3046 3049 3052 3053 3054 3056 3057 3059 3060 3061 3063 3065 3067 3069 3071 3073 3075 3076 3078 3080 3081 3083 3085 3086 3087 3087 3088 3089 3090 3092 3092 3093 3095 3099 3102 3104 3107 3109 3111 3113 3115 3117 3119 3121 3122 3122 3123 3125 3127 3129 3131 3133 3135 3136 3138 3139 3141 3142 3144 3145 3146 3147
3008 3009 3010 3011 3011 3011 3013 3015 3017 3020 3022 3025 3028 3031 3034 3036 3039 3042 3043 3044 3046 3047 3048 3048 3048 3050 3052 3054 3055 3055 3056 3058 3059 3061 3062 3063 3065 3068 3070 3071 3073 3075 3076 3079 3080 3082 3084 3085 3085 3086 3087 3088 3089 3090 3092 3092 3094 3098 3101 3103 3105 3108 3110 3112 3114 3116 3118 3120 3121 3121 3123 3125 3127 3128 3130 3132 3133 3134 3136 3137 3139 3140 3142 3143 3144 3145
3008 3009 3010 3011 3011 3012 3014 3016 3017 3020 3023 3025 3028 3030 3033 3036 3038 3041 3043 3044 3046 3047 3046 3047 3049 3050 3051 3054 3054 3054 3055 3057 3058 3060 3061 3062 3064 3066 3067 3069 3071 3073 3076 3078 3079 3081 3083 3083 3084 3085 3086 3087 3088 3089 3091 3093 3095 3097 3100 3102 3104 3106 3109 3111 3113 3115 3116 3118 3120 3121 3123 3125 3126 3127 3128 3130 3131 3132 3134 3135 3137 3138 3140 3141 3142 3143
3008 3009 3010 3011 3012 3013 3015 3016 3017 3020 3023 3025 3027 3030 3033 3036 3038 3041 3043 3044 3046 3046 3046 3047 3048 3049 3051 3052 3053 3054 3055 3056 3058 3059 3060 3061 3063 3064 3066 3068 3070 3072 3075 3077 3078 3080 3082 3082 3083 3084 3085 3086 3087 3089 3091 3093 3095 3097 3099 3101 3103 3105 3107 3110 3112 3114 3114 3116 3118 3119 3121 3122 3123 3124 3126 3128 3129 3130 3132 3133 3135 3136 3138 3139 3140 3141
3008 3009 3010 3011 3012 3013 3015 3016 3018 3020 3022 3025 3027 3029 3032 3035 3037 3040 3042 3043 3045 3045 3045 3046 3048 3050 3051 3052 3052 3053 3054 3056 3057 3059 3060 3061 3062 3064 3066 3068 3070 3072 3074 3076 3078 3079 3080 3081 3082 3083 3085 3086 3087 3088 3090 3093 3095 3097 3099 3100 3102 3104 3106 3108 3111 3112 3112 3114 3115 3116 3118 3119 3121 3122 3124 3125 3127 3128 3130 3131 3133 3134 3136 3137 3138 3139
3008 3008 3010 3010 3010 3011 3014 3016 3018 3020 3023 3025 3026 3028 3030 3033 3035 3037 3040 3042 3043 3044 3045 3046 3047 3049 3051 3051 3052 3053 3054 3055 3057 3058 3060 3061 3062 3064 3066 3068 3070 3072 3074 3075 3077 3078 3080 3081 3082 3083 3085 3086 3087 3089 3090 3093 3095 3096 3098 3100 3101 3102 3104 3107 3109 3110 3111 3111 3113 3114 3116 3117 3118 3119 3121 3123 3124 3126 3128 3129 3131 3132 3134 3135 3136 3137
3008 3009 3010 3010 3009 3009 3013 3016 3018 3020 3022 3022 3022 3025 3028 3031 3034 3037 3039 3041 3042 3043 3045 3046 3046 3048 3050 3051 3052 3053 3054 3055 3056 3058 3059 3061 3062 3064 3066 3068 3070 3071 3073 3075 3076 3078 3079 3080 3081 3083 3084 3086 3087 3089 3090 3092 3094 3095 3097 3099 3100 3102 3103 3106 3108 3109 3109 3110 3110 3112 3113 3115 3116 3117 3119 3120 3122 3124 3125 3127 3128 3129 3130 3132 3133 3134
3008 3009 3010 3009 3008 3009 3013 3016 3018 3019 3019 3018 3020 3024 3028 3030 3033 3035 3037 3039 3040 3042 3044 3045 3045 3047 3048 3050 3051 3052 3053 3054 3056 3057 3058 3060 3062 3064 3066 3067 3069 3071 3073 3074 3076 3077 3078 3079 3080 3082 3083 3085 3086 3088 3090 3091 3093 3094 3096 3098 3099 3100 3102 3103 3105 3106 3107 3108 3109 3110 3111 3113 3114 3116 3117 3118 3120 3121 3122 3124 3125 3126 3127 3129 3130 3132
3008 3009 3010 3009 3008 3009 3012 3015 3017 3017 3016 3017 3020 3024 3027 3030 3033 3035 3037 3038 3040 3041 3042 3043 3045 3046 3048 3049 3050 3051 3052 3054 3055 3057 3058 3059 3061 3063 3065 3067 3069 3071 3073 3074 3075 3077 3078 3079 3080 3081 3082 3084 3085 3087 3089 3090 3092 3093 3095 3096 3097 3098 3099 3100 3101 3103 3105 3106 3107 3108 3109 3111 3112 3114 3115 3116 3117 3118 3119 3121 3122 3123 3125 3126 3128 3129
3008 3010 3010 3009 3009 3010 3011 3013 3015 3016 3016 3018 3020 3022 3025 3029 3031 3034 3036 3037 3039 3040 3041 3042 3045 3047 3048 3049 3050 3051 3051 3053 3054 3056 3057 3059 3060 3062 3064 3066 3068 3070 3072 3074 3075 3076 3077 3078 3079 3080 3081 3083 3084 3086 3088 3089 3091 3092 3093 3094 3095 3095 3096 3096 3097 3099 3101 3103 3104 3106 3108 3109 3110 3112 3113 3114 3115 3116 3117 3118 3119 3121 3122 3124 3125 3126
3009 3009 3010 3009 3009 3010 3010 3012 3015 3016 3017 3018 3019 3021 3023 3026 3028 3032 3034 3036 3037 3039 3040 3042 3045 3047 3048 3049 3050 3051 3051 3052 3054 3055 3056 3058 3059 3061 3063 3065 3067 3069 3071 3072 3074 3075 3076 3078 3079 3080 3081 3082 3084 3085 3086 3088 3089 3090 3092 3093 3093 3094 3094 3094 3095 3096 3098 3100 3102 3104 3106 3107 3108 3109 3110 3111 3112 3113 3114 3116 3117 3119 3120 3121 3122 3124
3008 3009 3009 3010 3009 3009 3009 3011 3013 3015 3015 3016 3018 3019 3022 3024 3027 3031 3034 3036 3037 3038 3039 3041 3044 3046 3047 3048 3050 3051 3051 3052 3053 3054 3055 3056 3058 3060 3062 3063 3066 3068 3070 3071 3073 3074 3076 3077 3078 3080 3081 3082 3083 3084 3085 3086 3087 3088 3089 3090 3091 3091 3091 3091 3092 3093 3095 3097 3099 3101 3103 3104 3105 3107 3108 3109 3109 3110 3111 3113 3114 3116 3117 3118 3119 3121
3008 3008 3009 3010 3010 3009 3008 3008 3010 3012 3014 3015 3016 3018 3021 3024 3027 3032 3036 3036 3036 3037 3039 3041 3044 3046 3047 3048 3049 3050 3051 3052 3052 3052 3053 3054 3057 3059 3061 3063 3065 3067 3069 3071 3072 3074 3075 3076 3077 3079 3080 3081 3082 3083 3084 3085 3086 3086 3087 3088 3088 3088 3089 3089 3090 3091 3093 3095 3096 3098 3100 3101 3102 3104 3104 3105 3106 3107 3108 3110 3111 3113 3114 3115 3116 3118
3009 3009 3009 3009 3009 3009 3008 3007 3009 3012 3014 3014 3016 3018 3021 3024 3028 3033 3035 3034 3034 3037 3039 3041 3043 3045 3046 3048 3049 3050 3050 3051 3052 3051 3052 3054 3057 3058 3060 3063 3065 3066 3068 3070 3071 3072 3073 3075 3076 3077 3078 3079 3081 3082 3083 3083 3084 3084 3085 3085 3085 3086 3087 3087 3087 3089 3091 3092 3094 3096 3098 3099 3099 3100 3100 3101 3103 3104 3105 3106 3108 3109 3111 3112 3114 3115
3009 3009 3009 3008 3009 3009 3008 3008 3010 3012 3013 3013 3016 3018 3021 3025 3029 3031 3031 3031 3033 3036 3038 3040 3042 3044 3045 3047 3048 3049 3050 3051 3052 3052 3053 3055 3057 3059 3060 3062 3064 3066 3067 3069 3070 3071 3072 3073 3075 3076 3077 3078 3079 3080 3081 3081 3081 3082 3082 3083 3083 3083 3084 3085 3086 3088 3090 3090 3091 3092 3093 3094 3096 3096 3096 3097 3100 3101 3102 3103 3105 3107 3108 3109 3111 3112
3008 3008 3008 3008 3008 3009 3009 3009 3011 3012 3012 3013 3016 3018 3021 3024 3027 3029 3030 3031 3033 3035 3037 3039 3041 3043 3045 3046 3047 3048 3050 3051 3052 3053 3054 3055 3057 3059 3060 3062 3063 3065 3066 3068 3069 3070 3071 3072 3074 3075 3076 3077 3078 3079 3079 3079 3079 3079 3080 3080 3080 3082 3083 3083 3084 3086 3086 3086 3087 3088 3089 3090 3091 3093 3094 3096 3097 3098 3099 3100 3102 3104 3105 3107 3108 3108
3007 3007 3006 3007 3008 3009 3009 3010 3010 3011 3012 3014 3016 3019 3022 3024 3025 3027 3029 3030 3032 3034 3036 3038 3040 3042 3044 3045 3046 3047 3049 3050 3051 3052 3053 3054 3056 3058 3060 3061 3062 3064 3065 3067 3068 3069 3070 3071 3072 3074 3075 3076 3076 3077 3077 3077 3077 3077 3077 3078 3079 3081 3081 3081 3082 3082 3082 3083 3083 3084 3085 3086 3088 3089 3091 3093 3094 3095 3096 3098 3100 3101 3103 3104 3104 3105
3007 3006 3006 3007 3008 3008 3009 3010 3010 3010 3012 3014 3016 3019 3021 3023 3024 3026 3028 3030 3032 3033 3035 3037 3040 3042 3043 3044 3045 3046 3048 3049 3050 3051 3053 3054 3055 3057 3059 3060 3061 3063 3065 3066 3067 3068 3069 3070 3071 3072 3073 3074 3074 3075 3075 3074 3074 3075 3076 3076 3077 3079 3079 3079 3079 3079 3079 3079 3080 3081 3082 3083 3084 3086 3087 3089 3091 3092 3093 3095 3097 3099 3100 3101 3102 3102
3006 3005 3006 3006 3007 3008 3009 3009 3010 3011 3013 3015 3016 3019 3021 3023 3024 3026 3028 3030 3031 3033 3035 3037 3039 3041 3042 3043 3044 3045 3047 3048 3050 3051 3052 3054 3055 3057 3058 3059 3061 3062 3064 3065 3066 3067 3068 3069 3069 3070 3071 3072 3072 3073 3073 3073 3072 3073 3073 3074 3075 3076 3076 3076 3076 3076 3076 3076 3077 3078 3078 3079 3081 3083 3084 3085 3087 3089 3091 3092 3094 3095 3097 3098 3099 3099
3005 3005 3006 3006 3007 3008 3009 3010 3010 3011 3013 3015 3017 3019 3021 3023 3025 3026 3028 3029 3031 3033 3034 3036 3038 3040 3041 3042 3043 3044 3046 3047 3049 3050 3052 3053 3055 3056 3057 3059 3060 3062 3063 3064 3065 3066 3067 3067 3068 3068 3069 3070 3071 3071 3071 3071 3071 3071 3071 3071 3072 3073 3073 3073 3074 3074 3074 3074 3074 3074 3075 3076 3078 3080 3081 3082 3085 3087 3088 3090 3091 3093 3094 3095 3096 3096
3005 3005 3006 3007 3007 3008 3010 3011 3012 3013 3014 3016 3017 3019 3021 3023 3024 3026 3028 3029 3030 3032 3034 3036 3037 3039 3039 3041 3042 3043 3045 3046 3048 3049 3051 3052 3054 3055 3057 3058 3059 3061 3062 3063 3064 3064 3065 3066 3066 3067 3068 3068 3069 3069 3069 3069 3069 3069 3069 3069 3070 3070 3071 3071 3071 3071 3071 3071 3072 3072 3073 3074 3075 3077 3079 3081 3083 3084 3086 3087 3089 3090 3091 3092 3093 3093
3005 3005 3006 3007 3008 3009 3011 3012 3013 3014 3015 3016 3018 3019 3021 3023 3024 3026 3027 3029 3030 3032 3034 3035 3036 3037 3038 3040 3041 3043 3044 3046 3047 3048 3050 3051 3053 3054 3056 3057 3058 3060 3061 3062 3062 3063 3064 3065 3065 3065 3066 3067 3067 3067 3067 3067 3068 3067 3067 3067 3067 3068 3068 3069 3069 3069 3069 3069 3069 3070 3070 3072 3074 3076 3078 3079 3081 3082 3084 3085 3087 3088 3088 3089 3089 3089
3006 3006 3007 3008 3009 3010 3012 3013 3014 3015 3017 3017 3019 3020 3021 3023 3025 3026 3027 3029 3030 3032 3033 3034 3036 3037 3038 3039 3041 3042 3043 3045 3046 3047 3049 3050 3052 3054 3055 3056 3058 3059 3060 3060 3061 3062 3063 3063 3064 3064 3064 3065 3065 3065 3065 3065 3065 3065 3065 3065 3065 3065 3066 3066 3066 3066 3066 3067 3068 3068 3069 3071 3073 3075 3076 3077 3079 3080 3081 3083 3084 3085 3085 3085 3085 3085
3007 3008 3008 3009 3010 3012 3014 3015 3015 3017 3018 3019 3021 3021 3022 3024 3025 3026 3027 3029 3030 3031 3032 3034 3035 3036 3037 3039 3040 3042 3043 3044 3045 3047 3048 3050 3051 3052 3054 3055 3056 3057 3058 3059 3060 3061 3062 3062 3062 3062 3062 3062 3063 3063 3063 3063 3063 3064 3063 3063 3063 3063 3064 3064 3065 3065 3065 3065 3066 3067 3068 3070 3072 3073 3075 3076 3077 3078 3079 3080 3081 3081 3081 3082 3082 3082
3009 3009 3010 3011 3012 3013 3015 3016 3017 3018 3019 3021 3022 3023 3024 3026 3026 3027 3028 3029 3030 3031 3032 3033 3034 3036 3037 3038 3040 3041 3043 3044 3045 3046 3048 3049 3050 3051 3053 3054 3055 3056 3057 3058 3059 3060 3061 3061 3061 3060 3060 3060 3060 3060 3060 3061 3061 3062 3062 3062 3062 3062 3062 3063 3063 3063 3064 3064 3065 3066 3068 3069 3070 3072 3073 3074 3075 3076 3077 3078 3078 3078 3078 3078 3079 3079